Voltar ao catálogo

STARLINK-4139

AtivoComunicaçõesVLEO
NORAD 52879·PAYLOAD·🇺🇸 United States

Lançado Jun 17, 2022 de Cape Canaveral Space Force Station

Loading…

Próximas Passagens (próximas 24 horas)

TLE

AtualizadoSource: CelesTrak SupGP

Época: Sep 15, 2026, 01:17 UTC

1 52879C 22062BB  26258.05395833 -.00033712  00000+0 -99588-3 0  2589
2 52879  53.1582 228.9233 0001754  83.5298 281.8984 15.34411066    10

Acompanhe STARLINK-4139 em tempo real com AllMySat

Download on the App Store